Location: Aldenham
(51.6667°N, 0.3500°W)
Time: 00:46:10
(UTC+00:00)

Vanguard 2 - Pass Details

Date: 27 February 2026
Orbit: 553 x 2896 km, 32.9° (Epoch: 7 March)

Event Time Altitude Azimuth Distance (km) Brightness Sun altitude
Exits shadow 04:08:14 17° 186° (S) 2,688 10.0 -25.7°
Maximum altitude 04:08:32 17° 184° (S) 2,656 10.0 -25.7°
Drops below altitude 10° 04:12:45 10° 144° (SE) 2,747 10.5 -25.1°
Sets 04:15:50 0° 124° (SE) 3,387 11.3 -24.6°
